EW7244 Weather Reports


time (UTC)temp
C
wind
direction
speed
KPH
gust
KPH
rain 1hr
cm
rain 24hr
cm
rain mn
cm
humidity
%
barometer
mb
20260509203002 12 238 0.0 0.0 0.00 0.18 0.18 89 1012.3
20260509201555 12 242 0.0 0.0 0.00 0.18 0.18 89 1012.3
20260509194554 12 247 0.0 0.0 0.00 0.18 0.18 91 1012.4
20260509193103 13 249 0.0 0.0 0.00 0.18 0.18 91 1012.2
20260509191611 13 247 0.0 0.0 0.03 0.18 0.18 91 1012.2
20260509190105 13 246 0.0 0.0 0.08 0.18 0.18 92 1011.8
20260509184551 13 230 0.0 0.0 0.15 0.18 0.18 91 1011.7
20260509183050 13 228 0.0 0.0 0.18 0.18 0.18 91 1011.7
20260509181549 14 227 0.0 0.0 0.15 0.15 0.15 89 1011.5
20260509180050 15 264 0.0 0.0 0.10 0.10 0.10 86 1011.5
20260509174548 16 265 0.0 0.0 0.03 0.03 0.03 80 1011.4
20260509173056 16 265 0.0 0.0 0.00 0.00 0.00 75 1011.2
20260509171559 17 266 0.0 0.0 0.00 0.00 0.00 75 1011.1
20260509170046 17 266 0.0 0.0 0.00 0.00 0.00 75 1010.9
20260509164550 16 266 0.0 0.0 0.00 0.00 0.00 74 1010.9
20260509163051 17 267 0.0 0.0 0.00 0.00 0.00 76 1010.8
20260509161548 17 269 0.0 0.0 0.00 0.00 0.00 75 1011.0
20260509160053 17 269 0.0 0.0 0.00 0.00 0.00 76 1011.0
20260509154547 18 267 0.0 0.0 0.00 0.00 0.00 72 1011.1
20260509153043 18 273 0.0 0.0 0.00 0.00 0.00 68 1011.2
20260509151537 20 30 0.0 0.0 0.00 0.00 0.00 59 1011.2
20260509150040 20 221 0.0 0.0 0.00 0.00 0.00 59 1011.2
20260509144556 20 219 0.0 0.0 0.00 0.00 0.00 53 1011.1
20260509143056 21 250 0.0 0.0 0.00 0.00 0.00 50 1011.2
20260509141551 20 261 0.0 0.0 0.00 0.00 0.00 55 1011.1
20260509140059 20 201 0.0 0.0 0.00 0.00 0.00 56 1011.2
20260509134601 20 215 0.0 0.0 0.00 0.00 0.00 55 1011.2
20260509133049 21 132 0.0 0.0 0.00 0.00 0.00 53 1011.1
20260509131601 21 163 0.0 1.6 0.00 0.00 0.00 50 1011.0
20260509130104 21 9 0.0 0.0 0.00 0.00 0.00 49 1011.1
20260509124552 21 240 0.0 0.0 0.00 0.00 0.00 49 1011.2
20260509123047 21 79 0.0 0.0 0.00 0.00 0.00 51 1011.1
20260509121529 21 103 0.0 0.0 0.00 0.00 0.00 49 1011.2
20260509120008 21 213 0.0 0.0 0.00 0.00 0.00 52 1011.5
20260509114610 21 165 0.0 1.6 0.00 0.00 0.00 58 1011.7
20260509113052 21 33 0.0 0.0 0.00 0.00 0.00 53 1011.9
20260509111600 20 146 0.0 0.0 0.00 0.00 0.00 48 1012.1
20260509104552 19 30 0.0 0.0 0.00 0.00 0.00 59 1012.5
20260509103056 19 74 0.0 0.0 0.00 0.00 0.00 64 1012.8
20260509101555 18 173 0.0 0.0 0.00 0.00 0.00 65 1012.8
20260509100045 18 135 0.0 0.0 0.00 0.00 0.00 61 1013.0
20260509094611 17 80 0.0 0.0 0.00 0.00 0.00 61 1013.1
20260509093054 17 224 0.0 0.0 0.00 0.00 0.00 65 1013.2
20260509091549 16 165 0.0 0.0 0.00 0.00 0.00 68 1013.3
20260509090004 16 136 0.0 0.0 0.00 0.00 0.00 71 1013.4
20260509084512 15 94 0.0 0.0 0.00 0.00 0.00 73 1013.5
20260509083052 15 82 0.0 0.0 0.00 0.00 0.00 75 1013.6
20260509081547 15 56 0.0 0.0 0.00 0.00 0.00 78 1013.7
20260509080058 14 159 0.0 0.0 0.00 0.00 0.00 78 1014.0
20260509074556 13 146 0.0 0.0 0.00 0.00 0.00 79 1014.1
20260509073024 13 53 0.0 0.0 0.00 0.00 0.00 82 1014.1
20260509071540 13 141 0.0 0.0 0.00 0.00 0.00 81 1014.1
20260509070023 13 119 0.0 0.0 0.00 0.00 0.00 81 1014.0
20260509064512 12 97 0.0 0.0 0.00 0.00 0.00 85 1014.1
20260509063004 12 91 0.0 0.0 0.00 0.00 0.00 86 1014.1
20260509061609 12 115 0.0 0.0 0.00 0.00 0.00 86 1014.2
20260509060101 12 102 0.0 0.0 0.00 0.00 0.00 85 1014.3
20260509054611 12 96 0.0 0.0 0.00 0.00 0.00 84 1014.4
20260509053140 11 355 0.0 0.0 0.00 0.00 0.00 86 1014.3
20260509051516 11 355 0.0 0.0 0.00 0.00 0.00 88 1014.3
20260509050052 10 355 0.0 0.0 0.00 0.00 0.00 88 1014.1
20260509044548 10 355 0.0 0.0 0.00 0.00 0.00 91 1013.9
20260509043041 9 5 0.0 0.0 0.00 0.00 0.00 91 1014.1
20260509041555 9 225 0.0 0.0 0.00 0.00 0.00 92 1014.0
20260509040101 9 225 0.0 0.0 0.00 0.00 0.00 91 1013.7
20260509034547 9 225 0.0 0.0 0.00 0.00 0.00 91 1013.7
20260509033057 9 225 0.0 0.0 0.00 0.00 0.00 91 1013.9
20260509031553 9 225 0.0 0.0 0.00 0.00 0.00 91 1013.6
20260509030049 9 225 0.0 0.0 0.00 0.00 0.00 90 1013.6
20260509024544 10 225 0.0 0.0 0.00 0.00 0.00 90 1013.6
20260509023052 10 225 0.0 0.0 0.00 0.00 0.00 90 1013.6
20260509021547 10 225 0.0 0.0 0.00 0.00 0.00 89 1013.6
20260509020048 10 225 0.0 0.0 0.00 0.00 0.00 89 1013.5
20260509014538 10 225 0.0 0.0 0.00 0.00 0.00 88 1013.3
20260509013018 10 225 0.0 0.0 0.00 0.00 0.00 88 1013.3
20260509011509 10 225 0.0 0.0 0.00 0.00 0.00 87 1013.3
20260509010058 10 225 0.0 0.0 0.00 0.00 0.00 87 1013.3
20260509004548 10 225 0.0 0.0 0.00 0.00 0.00 87 1013.3
20260509003107 10 225 0.0 0.0 0.00 0.00 0.00 87 1013.2
20260509001541 10 225 0.0 0.0 0.00 0.00 0.00 87 1013.3
20260509000107 10 225 0.0 0.0 0.00 0.00 0.00 87 1013.3
20260508234546 10 225 0.0 0.0 0.00 0.00 0.00 86 1013.3
20260508233040 11 225 0.0 0.0 0.00 0.00 0.00 86 1013.2
20260508231600 11 311 0.0 0.0 0.00 0.00 0.00 86 1013.3
20260508230049 11 217 0.0 0.0 0.00 0.00 0.00 85 1013.3
20260508224606 11 217 0.0 0.0 0.00 0.00 0.00 85 1013.4
20260508223057 11 217 0.0 0.0 0.00 0.00 0.00 85 1013.3
20260508221552 11 217 0.0 0.0 0.00 0.00 0.00 86 1013.2
20260508220041 12 217 0.0 0.0 0.00 0.00 0.00 85 1013.1
20260508214559 12 216 0.0 0.0 0.00 0.00 0.00 84 1013.1
20260508213056 12 216 0.0 0.0 0.00 0.00 0.00 83 1013.1
20260508211548 12 216 0.0 0.0 0.00 0.00 0.00 84 1012.9
20260508210041 12 216 0.0 0.0 0.00 0.00 0.00 84 1012.7
20260508204554 12 216 0.0 0.0 0.00 0.00 0.00 84 1012.7